Andravida, Greece

5:08 AM EET on December 09, 2016 (GMT +0200)
Andravida Air Base

Weather History for LGAD - March, 2013

Change the Weather History Date:

Saturday, March 2, 2013

  Actual Average Record
Temperature  
Mean Temperature 51 °F -  
Max Temperature 60 °F 59 °F 66 °F (2002)
Min Temperature 42 °F 43 °F 33 °F (2012)
Degree Days  
Heating Degree Days 14    
Growing Degree Days 1 (Base 50)    
Moisture  
Dew Point 43 °F    
Average Humidity 72    
Maximum Humidity 93    
Minimum Humidity 41    
Precipitation  
Precipitation 0.91 in - - ()
Sea Level Pressure  
Sea Level Pressure 29.87 in    
Wind  
Wind Speed 2 mph ()    
Max Wind Speed 12 mph    
Max Gust Speed -    
Visibility 6.1 miles    
Events Rain    
Averages and records for this station are not official NWS values.
T = Trace of Precipitation, MM = Missing Value Source: Averaged Metar Reports

Daily Weather History Graph

Daily Weather History Graph

Search for Another Location

Airport or City:

Trip Planner

Search our weather history database for the weather conditions in past years. The results will help you decide how hot, cold, wet, or windy it might be!

Date:

Astronomy

Mar. 02, 2013 Rise Set
Actual Time 7:05 AM EET 6:29 PM EET
Civil Twilight 6:38 AM EET 6:55 PM EET
Nautical Twilight 6:08 AM EET 7:26 PM EET
Astronomical Twilight 5:37 AM EET 7:56 PM EET
Moon 11:42 PM EET (3/2) 9:25 AM EET (3/2)
Length of Visible Light 12h 16m
Length of Day
11h 24m
Waning Gibbous, 77% of the Moon is Illuminated
Mar 2
Waning Gibbous
Mar 4
Last Quarter
Mar 11
New
Mar 19
First Quarter
Mar 27
Full

Hourly Weather History & Observations

Time (EET) Temp. Windchill Dew Point Humidity Pressure Visibility Wind Dir Wind Speed Gust Speed Precip Events Conditions
12:20 AM 44.6 °F 42.2 °F 39.2 °F 81% 30.01 in 6.2 mi ESE 4.6 mph - N/A   Partly Cloudy
12:50 AM 44.6 °F - 39.2 °F 81% 30.01 in 6.2 mi Calm Calm - N/A   Partly Cloudy
1:20 AM 44.6 °F - 39.2 °F 81% 30.01 in 6.2 mi Calm Calm - N/A   Partly Cloudy
1:50 AM 42.8 °F - 39.2 °F 87% 30.01 in 6.2 mi Calm Calm - N/A   Partly Cloudy
2:00 AM 44 °F - 39 °F 77% 30.01 in 6 mi Calm Calm - -   Scattered Clouds
2:20 AM 44.6 °F - 39.2 °F 81% 30.01 in 6.2 mi Calm Calm - N/A   Partly Cloudy
2:50 AM 44.6 °F - 39.2 °F 81% 29.98 in 6.2 mi Calm Calm - N/A   Partly Cloudy
3:20 AM 44.6 °F - 39.2 °F 81% 29.98 in 6.2 mi Calm Calm - N/A   Partly Cloudy
3:50 AM 44.6 °F - 39.2 °F 81% 29.95 in 6.2 mi Calm Calm - N/A   Partly Cloudy
4:20 AM 44.6 °F - 39.2 °F 81% 29.95 in 6.2 mi Calm Calm - N/A   Partly Cloudy
4:50 AM 42.8 °F - 39.2 °F 87% 29.95 in 6.2 mi Calm Calm - N/A   Partly Cloudy
5:50 AM 44.6 °F - 39.2 °F 81% 29.95 in 6.2 mi Calm Calm - N/A   Partly Cloudy
6:50 AM 42.8 °F - 39.2 °F 87% 29.92 in 6.2 mi Calm Calm - N/A   Scattered Clouds
7:50 AM 44.6 °F - 41.0 °F 87% 29.92 in 6.2 mi Calm Calm - N/A   Mostly Cloudy
8:00 AM 45 °F - 41 °F 80% 29.93 in 6 mi Calm Calm - -   Scattered Clouds
8:20 AM 44.6 °F - 41.0 °F 87% 29.92 in 6.2 mi Calm Calm - N/A   Mostly Cloudy
8:50 AM 46.4 °F 43.5 °F 41.0 °F 81% 29.92 in 6.2 mi East 5.8 mph - N/A   Mostly Cloudy
9:20 AM 50.0 °F - 44.6 °F 82% 29.92 in 6.2 mi Calm Calm - N/A   Mostly Cloudy
9:50 AM 53.6 °F - 42.8 °F 67% 29.89 in 6.2 mi Calm Calm - N/A   Mostly Cloudy
10:20 AM 55.4 °F - 44.6 °F 67% 29.89 in 6.2 mi Calm Calm - N/A   Mostly Cloudy
10:50 AM 57.2 °F - 44.6 °F 63% 29.89 in 6.2 mi Calm Calm - N/A   Mostly Cloudy
11:20 AM 57.2 °F - 42.8 °F 59% 29.89 in 6.2 mi Calm Calm - N/A   Mostly Cloudy
11:50 AM 59.0 °F - 44.6 °F 59% 29.86 in 6.2 mi Calm Calm - N/A   Mostly Cloudy
12:20 PM 59.0 °F - 44.6 °F 59% 29.86 in 6.2 mi Calm Calm - N/A   Mostly Cloudy
12:50 PM 59.0 °F - 41.0 °F 51% 29.86 in 6.2 mi SW 5.8 mph - N/A   Mostly Cloudy
1:20 PM 59.0 °F - 41.0 °F 51% 29.86 in 6.2 mi Calm Calm - N/A   Mostly Cloudy
1:50 PM 59.0 °F - 42.8 °F 55% 29.83 in 6.2 mi Calm Calm - N/A   Mostly Cloudy
2:00 PM 60 °F - 42 °F 41% 29.86 in 6 mi Calm Calm - -   Scattered Clouds
2:20 PM 59.0 °F - 42.8 °F 55% 29.83 in 6.2 mi WSW 4.6 mph - N/A   Mostly Cloudy
2:50 PM 60.8 °F - 42.8 °F 52% 29.83 in 6.2 mi WSW 4.6 mph - N/A   Mostly Cloudy
3:20 PM 59.0 °F - 42.8 °F 55% 29.83 in 6.2 mi WNW 4.6 mph - N/A   Mostly Cloudy
3:50 PM 57.2 °F - 44.6 °F 63% 29.83 in 6.2 mi NNW 5.8 mph - N/A   Mostly Cloudy
4:20 PM 57.2 °F - 44.6 °F 63% 29.83 in 6.2 mi NNW 4.6 mph - N/A   Mostly Cloudy
4:50 PM 57.2 °F - 44.6 °F 63% 29.83 in 6.2 mi North 4.6 mph - N/A   Mostly Cloudy
5:20 PM 57.2 °F - 44.6 °F 63% 29.80 in 6.2 mi NE 5.8 mph - N/A   Mostly Cloudy
5:50 PM 55.4 °F - 44.6 °F 67% 29.80 in 6.2 mi ENE 6.9 mph - N/A   Scattered Clouds
6:20 PM 55.4 °F - 44.6 °F 67% 29.77 in 6.2 mi East 8.1 mph - N/A   Scattered Clouds
6:50 PM 55.4 °F - 44.6 °F 67% 29.77 in 6.2 mi East 6.9 mph - N/A   Mostly Cloudy
7:20 PM 55.4 °F - 44.6 °F 67% 29.77 in 6.2 mi East 6.9 mph - N/A   Mostly Cloudy
7:50 PM 53.6 °F - 44.6 °F 72% 29.77 in 6.2 mi ESE 5.8 mph - N/A   Mostly Cloudy
8:00 PM 54 °F - 45 °F 62% 29.78 in 6 mi ESE 5.8 mph - -   Partly Cloudy
8:20 PM 53.6 °F - 44.6 °F 72% 29.74 in 5.6 mi ESE 10.4 mph - N/A Rain Light Rain
8:50 PM 53.6 °F - 42.8 °F 67% 29.74 in 6.2 mi ESE 10.4 mph - N/A   Overcast
9:20 PM 53.6 °F - 42.8 °F 67% 29.74 in 6.2 mi East 4.6 mph - N/A   Overcast
9:50 PM 51.8 °F - 46.4 °F 82% 29.77 in 5.6 mi Calm Calm - N/A Rain Light Rain
10:20 PM 50.0 °F - 46.4 °F 87% 29.80 in 5.6 mi Calm Calm - N/A Rain Light Rain
10:50 PM 50.0 °F - 46.4 °F 87% 29.83 in 5.6 mi WSW 4.6 mph - N/A Rain Light Rain
11:20 PM 48.2 °F - 46.4 °F 93% 29.83 in 5.6 mi East 4.6 mph - N/A Rain Light Rain
11:50 PM 48.2 °F - 46.4 °F 93% 29.83 in 5.6 mi East 11.5 mph - N/A Rain Light Rain